This is the latest recevied weather packets stored in our database for station/object VA2CPJ. If no packets are shown the sender has not sent any weather packets the latest 10 day(s).
| Time | Temp. | Humidity | Pressure | Rain* | Wind** | Luminosity | Snow |
|---|---|---|---|---|---|---|---|
| 1777733727 | 7.78° C | 50% | 1021.5 hPa | - | - | - | - |
| 1777733150 | 7.78° C | 53% | 1021.5 hPa | - | - | - | - |
| 1777731977 | 7.22° C | 53% | 1021.5 hPa | - | - | - | - |
| 1777731627 | 7.22° C | 55% | 1020.8 hPa | - | - | - | - |
| 1777731023 | 7.22° C | 57% | 1021.2 hPa | - | - | - | - |
| 1777729072 | 5.56° C | 57% | 1022.2 hPa | - | - | - | - |
| 1777728339 | 5.56° C | 62% | 1022.2 hPa | - | - | - | - |
| 1777727724 | 5° C | 64% | 1022.2 hPa | - | - | - | - |
| 1777726259 | 5° C | 68% | 1021.5 hPa | - | - | - | - |
| 1777725335 | 4.44° C | 72% | 1022.2 hPa | - | - | - | - |
| 1777722343 | 4.44° C | 76% | 1022.2 hPa | - | - | - | - |
| 1777720821 | 2.78° C | 81% | 1021.2 hPa | - | - | - | - |
| 1777719919 | 2.22° C | 83% | 1022.2 hPa | - | - | - | - |
| 1777719630 | 2.22° C | 83% | 1021.2 hPa | - | - | - | - |
| 1777719333 | 1.67° C | 83% | 1022.2 hPa | - | - | - | - |
| 1777718730 | 1.67° C | 84% | 1022.2 hPa | - | - | - | - |
| 1777716620 | 2.22° C | 81% | 1020.8 hPa | - | - | - | - |
| 1777714223 | 1.11° C | 86% | 1020.5 hPa | - | - | 306 W/m² | - |
| 1777713934 | 1.11° C | 86% | 1021.5 hPa | - | - | 188 W/m² | - |
| 1777713330 | 1.11° C | 86% | 1021.5 hPa | - | - | 38 W/m² | - |
| 1777712158 | 1.67° C | 86% | 1021.2 hPa | - | - | 0 W/m² | - |
| 1777711239 | 1.11° C | 86% | 1020.5 hPa | - | - | 0 W/m² | - |
| 1777710627 | 1.11° C | 85% | 1020.5 hPa | - | - | 0 W/m² | - |
| 1777710023 | 0.56° C | 86% | 1020.5 hPa | - | - | 0 W/m² | - |
| 1777707967 | 1.11° C | 84% | 1021.2 hPa | - | - | 0 W/m² | - |
* Rain since midnight (hover to see other rain measurements)
** Current wind speed in m/s (hover to see current wind gust speed)